# Land Stadt Wetter Temperatur Luftdruck Luftfeuchtigkeit Sichtweite Windgeschwindigkeit Windrichtung Ortszeit
1 kr Seoul Clear 6 1023 19 10000 5 340 02.08.2018 14:21
2 bg Warna Clouds 7 1021 65 10000 9 80 02.08.2018 14:21
3 jp Nagasaki Clouds 12 1019 62 10000 21 360 02.08.2018 14:21
4 mg Antananarivo Clouds 16 1019 87 10000 13 100 02.08.2018 14:21
5 de Trier Clear 5 1023 52 10000 13 50 02.08.2018 14:21
6 de München Clear 3 1024 74 10000 2 0 02.08.2018 14:21
7 de Hamburg Clouds 4 1028 69 10000 5 120 02.08.2018 14:21
8 au Alice Springs Clear 18 1021 45 10000 18 70 02.08.2018 14:21
9 fj Suva Rain 27 1009 82 0 7 116 02.08.2018 14:21
10 de Berlin Clear 4 1030 64 10000 2 0 02.08.2018 14:21
11 bg Sofia Rain 3 1019 93 10000 4 310 02.08.2018 14:21
12 fi Rovaniemi Clouds -7 1010 62 10000 18 340 02.08.2018 14:21
13 gb Glasgow Clouds 8 1013 81 10000 13 170 02.08.2018 14:21
14 cn Shanghai Clouds 10 1028 53 10000 22 50 02.08.2018 14:21
15 vn Hanoi Clouds 18 1019 72 10000 13 30 02.08.2018 14:21
16 au Perth Clouds 17 1017 63 10000 15 90 02.08.2018 14:21
17 pg Port Moresby Haze 29 1012 74 10000 9 350 02.08.2018 14:21
18 it Mailand Clear 10 1024 57 10000 5 60 02.08.2018 14:21
19 de Emden Clear 6 1026 60 8000 8 120 02.08.2018 14:21
20 de Hiddensee Clouds 3 1034 76 0 2 157 02.08.2018 14:21
21 de Flensburg Clouds 3 1027 93 0 15 170 02.08.2018 14:21
22 gb Manchester Clouds 8 1017 57 10000 9 140 02.08.2018 14:21
23 ph Manila Clouds 29 1014 69 10000 9 120 02.08.2018 14:21
24 fr Bordeaux Clear 12 1015 54 10000 18 140 02.08.2018 14:21
25 de Köln Clear 7 1024 61 10000 9 90 02.08.2018 14:21
26 us Las Vegas Clouds 24 1005 14 16093 22 240 02.08.2018 14:21
27 de Kassel Clear 4 1026 86 6000 2 50 02.08.2018 14:21
28 ua Kiew Clouds 1 1028 59 9000 7 260 02.08.2018 14:21
29 fi Helsinki Clear -2 1020 63 10000 13 260 02.08.2018 14:21
30 mx Mexiko Stadt Clouds 25 1021 33 11265 26 220 02.08.2018 14:21
31 ie Dublin Clouds 10 1011 66 10000 28 150 02.08.2018 14:21
32 es Las Palmas de Gran Canaria Clouds 19 1016 77 10000 4 0 02.08.2018 14:21
33 sa Riad Clear 23 1020 19 8000 8 70 02.08.2018 14:21
34 ae Dubai Clouds 27 1011 39 10000 5 210 02.08.2018 14:21
35 af Kabul Clouds 10 1021 66 10000 5 310 02.08.2018 14:21
36 us Tucson Clear 27 1008 10 16093 24 270 02.08.2018 14:21
37 mx Veracruz Clouds 30 1005 66 8047 11 80 02.08.2018 14:21
38 de Braunschweig Clouds 4 1028 60 10000 5 80 02.08.2018 14:21
39 es Tarifa Clouds 15 1018 82 10000 31 80 02.08.2018 14:21
40 do Santo Domingo Clouds 27 1011 78 10000 13 26 02.08.2018 14:21
41 br Manaus Rain 27 1008 100 10000 1 63 02.08.2018 14:21
42 th Bangkok Clear 29 1011 88 10000 12 197 02.08.2018 14:21
43 in Nagpur Haze 23 1012 83 3000 5 40 02.08.2018 14:21
44 us Denver Clouds 14 1009 30 16093 9 140 02.08.2018 14:21
45 de Oberstdorf Clear 3 1022 86 10000 2 0 02.08.2018 14:21
46 de Hannover Clouds 5 1027 56 10000 8 110 02.08.2018 14:21
47 de Nürnberg Clear 4 1025 52 10000 13 80 02.08.2018 14:21
48 de Helgoland Clouds 6 1027 60 10000 8 130 02.08.2018 14:22
49 de Torfhaus Clear 4 1027 54 0 8 90 02.08.2018 14:22
50 es Barcelona Clouds 9 1021 81 10000 5 300 02.08.2018 14:22
51 pt Lissabon Clouds 16 1012 82 10000 22 170 02.08.2018 14:22
52 za Kapstadt Fog 16 1012 100 300 5 350 02.08.2018 14:22
53 ca Montreal Clear 9 1016 61 14484 11 20 02.08.2018 14:22
54 eg Kairo Clouds 30 1007 11 6000 30 160 02.08.2018 14:22
55 bo Potisi Rain 9 1012 24 0 3 54 02.08.2018 14:22
56 in Jagatsukh Clouds 4 1025 26 0 12 43 02.08.2018 14:22
57 ru Werchojansk Snow -8 1006 93 0 10 145 02.08.2018 14:22
58 gl Nuuk Clouds -4 1004 53 0 31 60 02.08.2018 14:22
59 ru Moskau Clear -2 1020 74 10000 11 240 02.08.2018 14:22
60 gr Athen Rain 10 1004 81 10000 18 360 02.08.2018 14:22
61 no Hammerfest Snow -4 1007 73 10000 31 270 02.08.2018 14:22
62 uy Montevideo Clear 18 1011 72 10000 5 90 02.08.2018 14:22
63 ar Ushuaia Clouds 5 978 75 10000 30 230 02.08.2018 14:22
64 au Darwin Rain 25 1010 94 10000 9 310 02.08.2018 14:22
65 id Jakarta Haze 26 1010 88 4000 9 130 02.08.2018 14:22
66 in Mumbai Haze 27 1009 83 3000 7 37 02.08.2018 14:22
67 cn Lhasa Snow 1 1020 19 0 2 143 02.08.2018 14:22
68 iq Bagdad Clouds 13 1020 58 10000 13 320 02.08.2018 14:22
69 ke Nairobi Clouds 17 1022 88 10000 15 100 02.08.2018 14:22
70 at Wien Clear 4 1027 48 10000 9 330 02.08.2018 14:22
71 it Palermo Clouds 11 1004 68 0 6 354 02.08.2018 14:22
72 is Reykjavik Snow -5 1002 79 2500 37 60 02.08.2018 14:22
73 ru Jakutsk Clouds -2 1013 50 10000 29 270 02.08.2018 14:22
74 jp Tokio Clouds 13 1010 71 10000 17 20 02.08.2018 14:22
75 br Rio de Janeiro Clouds 24 1014 69 10000 13 230 02.08.2018 14:22
76 ar Esquel Clear 11 1012 57 10000 21 260 02.08.2018 14:22
77 bo La Paz Clouds 8 1036 75 10000 26 210 02.08.2018 14:22
78 ec San Cristobal Clouds 27 1005 88 10000 11 20 02.08.2018 14:22
79 de Stuttgart Clear 5 1024 65 10000 2 0 02.08.2018 14:22
80 bs Nassau Clouds 23 1015 60 10000 9 40 02.08.2018 14:22
81 us Honolulu Clouds 28 1015 58 16093 15 160 02.08.2018 14:22
82 de Bremen Clear 6 1027 56 10000 13 120 02.08.2018 14:22
83 de Frankfurt Clear 7 1025 65 10000 13 10 02.08.2018 14:22
84 de Dresden Clear 3 1029 69 10000 4 120 02.08.2018 14:22
85 de Freiburg Clear 5 1022 61 10000 17 270 02.08.2018 14:22
86 ad Andorra la Vella Clouds 5 1012 70 0 10 204 02.08.2018 14:22
87 de Magdeburg Clear 2 1029 78 0 10 134 02.08.2018 14:22
88 tr Alanya Clouds 17 1017 45 8000 18 97 02.08.2018 14:22
89 us Los Angeles Clouds 18 1011 52 16093 13 260 02.08.2018 14:22
90 us Death Valley Clear 18 1003 23 0 16 223 02.08.2018 14:22
91 es Palma de Mallorca Clear 10 1022 87 10000 8 350 02.08.2018 14:22
92 es Sevilla Clouds 13 1015 93 10000 4 0 02.08.2018 14:22
93 fr Paris Clear 9 1019 70 10000 13 80 02.08.2018 14:22
94 sb Honiara Clouds 31 1007 70 10000 26 290 02.08.2018 14:22
95 ck Avarua Rain 27 1009 88 10000 18 360 02.08.2018 14:22
96 ar Buenos Aires Clear 21 1010 56 10000 11 340 02.08.2018 14:22
97 fr Nizza Clear 13 1022 37 10000 9 350 02.08.2018 14:22
98 us New York Clouds 11 1016 66 16093 11 120 02.08.2018 14:22
99 au Sydney Clouds 20 1014 42 10000 24 310 02.08.2018 14:22
100 gb London Clear 7 1019 75 10000 15 100 02.08.2018 14:22
101 ma Casablanca Mist 14 1015 93 4700 5 120 02.08.2018 14:23
102 ma Marrakesch Clouds 16 1016 72 10000 8 240 02.08.2018 14:23
103 ch Andermatt Clouds 3 1022 74 0 9 179 02.08.2018 14:23
104 ch Bern Clear 4 1021 71 10000 2 0 02.08.2018 14:23
105 at Innsbruck Clear 1 1025 74 10000 4 0 02.08.2018 14:23
106 it Rom Clear 10 1018 45 10000 5 340 02.08.2018 14:23
107 tr Ankara Clouds 9 1017 71 10000 4 0 02.08.2018 14:23
108 tr Istanbul Rain 9 1016 87 10000 18 30 02.08.2018 14:23
109 et Addis Abeba Clouds 15 1026 67 10000 4 360 02.08.2018 14:23
110 ru Amderma Clouds -6 998 97 0 20 238 02.08.2018 14:23
111 ru Surgut Rain 2 1019 100 5000 18 180 02.08.2018 14:23
112 mn Ulaanbaatar Clouds -4 1022 62 10000 6 49 02.08.2018 14:23
113 mn Uliastai Clear -4 1025 41 0 7 120 02.08.2018 14:23
114 us Chicago Clouds 6 1020 75 16093 18 90 02.08.2018 14:23
115 cl Santiago Clouds 22 1010 43 10000 13 210 02.08.2018 14:23
116 us Miami Clouds 25 1013 57 16093 18 160 02.08.2018 14:23
117 us Nome Snow 1 994 96 4023 31 170 02.08.2018 14:23
118 us Fairbanks Rain 1 1011 90 6437 9 150 02.08.2018 14:23
119 cn Peking Clouds 9 1029 56 10000 4 0 02.08.2018 14:23
120 mv Male Clouds 29 1009 74 10000 17 80 02.08.2018 14:23
121 no Oslo Clouds 2 1022 80 10000 4 0 02.08.2018 14:23
122 se Stockholm Clouds 0 1025 83 10000 5 250 02.08.2018 14:23
123 ru Anadyr Snow -15 1003 84 5000 32 330 02.08.2018 14:23
124 qa Doha Clouds 25 1013 34 10000 9 320 02.08.2018 14:23
125 nz Wellington Clouds 19 1027 52 10000 26 10 02.08.2018 14:23
126 cd Kisangani Rain 22 1010 87 0 3 187 02.08.2018 14:23
127 pe Cusco Rain 11 1016 28 0 10 2 02.08.2018 14:23
128 es Madrid Clouds 12 1017 71 10000 11 130 02.08.2018 14:23